Tracking 20623 objects as of 3-Apr-2020
HD Live streaming from Space Station
objects crossing your sky now

ARIANE 5 DEB (SYLDA)

Track ARIANE 5 DEB (SYLDA) now!


NORAD ID: 27952
Int'l Code: 2003-043F
Perigee: 634.3 km
Apogee: 35,694.5 km
Inclination: 7.4 °
Period: 637.5 minutes
Semi major axis: 24535 km
RCS: 17.0078 m2 (large)
Launch date: September 27, 2003
Source: France (FR)
Launch site: FRENCH GUIANA (FRGUI)

Note: This is SATELLITE DEBRIS
aabbcc
Your satellite tracking list
Your tracking list is empty




NASA's NSSDC Master Catalog

Two Line Element Set (TLE):
1 27952U 03043F   20093.97872019 -.00000359  00000-0 -23207-2 0  9997
2 27952   7.4294  72.1296 7144833 294.0265 316.9160  2.25898669136245
Source of the keplerian elements: AFSPC